sat.trackr.live / text

‹ back to catalog

STARLINK-35966

NORAD 66821 · 2025-280A

PAYLOAD ACTIVE UNKNOWN

§ Identity

Operator
Country
US
Launch date
2025-12-02
Launch site
AFWTR
Launch vehicle
Mass (kg)
RCS (m²)

Purposes: comms

External: N2YO · Heavens-Above · Gunter

§ Orbital elements

Epoch: 2026-05-25T03:30:36.038880Z

Period
96.11 min
Inclination
70.0012°
Eccentricity
0.0002875
Mean motion
14.98338649 rev/d
Perigee alt
570.0 km
Apogee alt
574.0 km
Semi-major
6,950.2 km
B*
8.9543e-5
RAAN
141.8755°
Arg perigee
269.5889°
Mean anomaly
90.4941°
Rev number
2,752

§ Raw data

STARLINK-359661 66821U 25280A   26145.14625045  .00000976  00000+0  89543-4 0  99992 66821  70.0012 141.8755 0002875 269.5889  90.4941 14.98338649 27523

JSON: /api/v1/satellites/66821 · /tle

For live sub-satellite position, see the globe view (requires WebGL).

§ Visibility from observer

Set your observer location to see the next 7 days of passes ≥ 10°. The values pass through the URL so the page stays shareable.

No JS? Fill the form by hand. The geolocation button needs JavaScript.